www.pogodaiklimat.ru

Погода и климат >> Архив погоды >> Чад >> Sarh


ПОГОДА в Sarh

  • Прогноз погоды в Sarh
  • Монитор погоды в Sarh
  • Климат города

АРХИВ ПОГОДЫ в Sarh

Время (UTC), дата Ветер
(напр.,м/с)
 
Видим.   Явления Облачность Т
(С)
Тd
(С)
f
(%)
Тe
(С)
Тes
(С)
Комфортность P
(гПа)
Po
(гПа)
Тmin
(С)
Tmax
(С)
R
(мм)
R24
(мм)
S
(см)
00 10.07 штиль 0 10 км 9/0
[Ac trans Ci sp]
+25.6 +22.9 85 +34 +34 очень
душно
1013.0 972.6
03 10.07 штиль 0 10 км гроза без осадков 9/1 1500 м
[Cb cap Ac As Ci sp]
+25.0 +22.5 86 +33 +33 очень
душно
1012.3 972.0
06 10.07 штиль 0 10 км в посл. час гроза 9/1 600 м
[Sc As op Ci sp]
+25.0 +21.6 81 +32 +34 очень
душно
1013.4 972.8 +15.8
09 10.07 СЗ 3 10 км 9/4 1200 м
[Cu hum Ac trans Ci sp]
+30.5 +21.8 60 +39 +44 очень
душно
1014.3 973.9
12 10.07 ЮЗ 4 10 км 9/6 1200 м
[Cu med, cong Ci sp]
+33.0 +20.6 48 +40 +44 очень
душно
1011.2 971.0
15 10.07 ЮЗ 4 10 км 9/6 1200 м
[Cu med, cong Ci sp]
+33.0 +20.6 48 +40 +41 очень
душно
1009.3 969.1
18 10.07 штиль 0 10 км 9/0
[Ac cuf Ci sp]
+30.5 +22.6 63 +40 +40 очень
душно
1010.8 970.5
21 10.07 штиль 0 10 км 9/0
[Ac trans Ci sp]
+28.0 +24.6 82 +40 +40 очень
душно
1010.7 970.6
00 11.07 штиль 0 10 км 9/0
[Ac As Ci sp]
+27.3 +23.3 79 +37 +37 очень
душно
1011.2 971.2
03 11.07 штиль 0 10 км зарница 9/1 1500 м
[Cb cap Ac As Ci sp]
+27.0 +24.5 86 +38 +38 очень
душно
1011.6 971.6
06 11.07 С 6 10 км гроза, ливневой дождь 10/6 600 м
[Cb cap Ac As]
+22.2 +21.0 93 +29 +29 очень
душно
1015.5 974.8 +21.6 6
09 11.07 З 1 10 км гроза без осадков {дождь} 10/5 600 м
[Cb cap Ac As]
+23.0 +21.5 91 +31 +34 очень
душно
1015.3 974.5
12 11.07 ЮЗ 3 10 км {гроза, дождь} 9/0
[Ac As Ci sp]
+27.0 +20.3 67 +33 +42 очень
душно
1013.4 972.8 0.5
15 11.07 Ю 2 10 км 9/3 1200 м
[Cu hum Ac trans Ci sp]
+28.5 +22.0 68 +37 +39 очень
душно
1010.5 970.1
21 11.07 штиль 0 10 км 9/0
[Ac cuf Ci sp]
+24.0 +22.1 89 +31 +31 очень
душно
1013.8 972.8
00 12.07 штиль 0 10 км 9/0
[Ac cuf Ci sp]
+23.0 +22.3 96 +31 +31 очень
душно
1013.1 972.3
03 12.07 штиль 0 10 км 9/0
[Ac trans Ci sp]
+23.0 +21.5 91 +31 +31 очень
душно
1012.9 972.2
06 12.07 штиль 0 10 км 9/0
[Ac trans Ci sp]
+22.5 +21.0 91 +29 +32 очень
душно
1012.9 972.0 +22.0 0.5
09 12.07 ЮЗ 2 10 км 9/1 600 м
[Sc Ac trans Ci sp]
+27.6 +20.1 64 +34 +42 очень
душно
1014.2 973.4
12 12.07 Ю 2 10 км 9/4 1200 м
[Cu med, cong Ac trans Ci sp]
+31.7 +21.7 55 +40 +47 очень
душно
1012.2 971.8
15 12.07 СВ 8 10 км гроза без осадков 9/3 1200 м
[Cb cap Ac As Ci sp]
+27.0 +21.1 70 +34 +34 очень
душно
1011.7 970.9
18 12.07 штиль 0 10 км гроза без осадков {дождь} 9/0
[Ac cuf Ci sp]
+24.2 +21.7 86 +31 +31 очень
душно
1010.7 969.8 0.1
21 12.07 штиль 0 10 км 9/0
[Ac As Ci sp]
+24.2 +22.5 90 +32 +32 очень
душно
1012.9 972.2
00 13.07 штиль 0 10 км 9/0
[Ac trans Ci sp]
+23.5 +22.5 94 +31 +31 очень
душно
1011.1 970.8
03 13.07 штиль 0 10 км 9/0
[Ac trans Ci sp]
+23.0 +22.0 94 +31 +31 очень
душно
1011.6 970.9
09 13.07 штиль 0 10 км 9/0
[Ac As]
+27.7 +23.1 76 +37 +45 очень
душно
1013.1 972.4
12 13.07 ЮЗ 3 10 км 9/3 1200 м
[Cu hum Ac As Ci sp]
+30.5 +22.9 64 +40 +47 очень
душно
1011.5 971.0
15 13.07 СЗ 4 10 км 9/4 1200 м
[Cb cap Ac trans Ci sp]
+32.8 +22.4 54 +42 +43 опасность
перегрева
1009.4 969.2
18 13.07 Ю 4 10 км зарница 9/3 1500 м
[Cb cap Ac cuf Ci ing]
+27.9 +20.8 65 +35 +35 очень
душно
1009.8 969.1
21 13.07 штиль 0 10 км зарница 9/1 1500 м
[Cb cap Ac trans Ci sp]
+24.2 +21.7 86 +31 +31 очень
душно
1012.5 971.9
00 14.07 штиль 0 10 км зарница 9/1 1500 м
[Cb cap Ac trans Ci sp]
+24.0 +21.0 83 +30 +30 очень
душно
1011.5 971.0
03 14.07 ЮЗ 4 10 км зарница 9/1 1500 м
[Cb cap Ac trans Ci sp]
+23.5 +21.3 87 +30 +30 очень
душно
1010.7 970.4
06 14.07 штиль 0 10 км 9/1 1500 м
[Cb calv Ac trans Ci sp]
+24.5 +21.5 83 +31 +33 очень
душно
1012.1 971.5 +23.0
09 14.07 З 5 10 км 9/3 1200 м
[Cu hum Ac trans Ci sp]
+29.8 +22.8 66 +39 +43 очень
душно
1011.9 971.4
12 14.07 СЗ 5 10 км 9/0 1200 м
[Ac trans Ci sp]
+32.0 +24.9 66 +45 +50 опасность
перегрева
1009.8 969.6
15 14.07 З 4 10 км 9/4 1200 м
[Cb cap Ac trans Ci sp]
+32.5 +21.4 52 +40 +42 очень
душно
1007.7 967.5
18 14.07 З 4 10 км гроза без осадков 9/1 1500 м
[Cb cap Ac cuf Ci sp]
+27.5 +21.2 69 +35 +35 очень
душно
1009.0 968.5
21 14.07 Ю 3 10 км гроза без осадков 10/6 600 м
[Cb cap Ac As]
+25.8 +21.5 77 +33 +33 очень
душно
1011.7 971.3
00 15.07 штиль 0 10 км в посл. час гроза 10/4 600 м
[Cb cap Ac As]
+24.6 +22.0 85 +32 +32 очень
душно
1010.2 969.9
03 15.07 Ю 3 10 км зарница 10/4 600 м
[Cb cap Ac As]
+24.0 +21.9 88 +31 +31 очень
душно
1011.0 970.7
06 15.07 ЮЗ 4 10 км 9/1 600 м
[Sc diur, vesp Ac As Ci sp]
+24.3 +20.9 81 +30 +31 очень
душно
1012.0 971.4 +23.0
09 15.07 ЮЗ 4 10 км 9/3 1500 м
[Cb calv Ac trans Ci sp]
+29.0 +22.5 68 +38 +43 очень
душно
1012.4 972.0
12 15.07 Ю 5 10 км 9/5 1200 м
[Cu med, cong Ac trans Ci sp]
+31.0 +23.0 62 +41 +44 опасность
перегрева
1010.3 970.0
15 15.07 Ю 6 10 км гроза без осадков 9/6 1200 м
[Cb cap Ac trans Ci sp]
+31.7 +22.9 60 +42 +42 опасность
перегрева
1007.8 967.6
18 15.07 штиль 0 10 км гроза без осадков 9/4 600 м
[Cb cap Ac As Ci sp]
+27.0 +24.5 86 +38 +38 очень
душно
1009.7 969.1
21 15.07 штиль 0 10 км гроза без осадков 9/1 1500 м
[Cb cap Ac trans Ci sp]
+25.5 +22.3 82 +33 +33 очень
душно
1011.2 970.8
00 16.07 штиль 0 5000 м гроза без осадков 9/1 1500 м
[Cb cap Ac trans Ci sp]
+25.5 +22.6 84 +34 +34 очень
душно
1011.4 971.1
03 16.07 С 5 10 км гроза, ливневой дождь 10/6 600 м
[Cb cap Ac As]
+21.5 +20.0 91 +27 +27 душно 1012.8 972.2
06 16.07 СВ 2 10 км гроза, ливневой дождь 10/9 600 м
[Cb cap Ac As]
+25.5 +21.8 80 +33 +33 очень
душно
1014.0 973.1 +13.0 16
09 16.07 ЮЗ 3 10 км в посл. час дождь {гроза} 10/8 600 м
[Cb cap Ac As]
+24.8 +22.2 85 +32 +33 очень
душно
1012.8 972.0
12 16.07 ЮЗ 4 10 км {гроза, дождь} 9/6 600 м
[Cu Sc Ac trans Cs]
+28.0 +22.2 71 +37 +40 очень
душно
1011.4 970.9 1
15 16.07 штиль 0 10 км 9/1 1200 м
[Cu hum Ac As Ci sp]
+31.0 +22.1 59 +40 +43 очень
душно
1010.2 969.7
18 16.07 штиль 0 10 км 9/1 1500 м
[Cb cap Ac cuf Ci sp]
+28.0 +23.7 77 +38 +38 очень
душно
1010.5 969.9 1

 

Местоположение метеостанции Sarh (Чад): широта 9.15 долгота 18.38 высота над уровнем моря 365 м.

В архиве по умолчанию представлена погода в Sarh за последнюю неделю. Архивные данные за месяц целиком и за предыдущие месяцы, начиная с января 2011 года, Вы можете получить, выбрав интересующий диапазон дат из раскрывающегося списка и нажав кнопку "Ввод!".


*Определитесь, кто Вы:
робот инопланетянин человек

Внимание! Время в таблицах - всемирное. Для получения местного времени необходимо прибавить поправку, которая в Sarh равна 1 ч.

Смотрите также архив погоды в соседних городах и на ближайших метеорологических станциях:

Погода в Bousso (Чад) (234 км)
Погода в Moundou (Чад) (262 км)
Погода в Am-Timan (Чад) (295 км)
Погода в Bossangoa (ЦАР) (315 км)
Погода в Mongo (Чад) (339 км)
Погода в Pala (Чад) (380 км)
Погода в Bokoro (Чад) (388 км)
Погода в Bambari (ЦАР) (444 км)
Погода в Ati (Чад) (453 км)
Погода в Bouar (ЦАР) (466 км)

Пояснения к столбцам:

Ветер - указаны скорость ветра в м/с - средняя за 10 мин, порывы в срок и между сроками (в фигурных скобках) и направление, откуда дует ветер: С - северный, СВ - северо-восточный, В - восточный, ЮВ - юго-восточный, Ю - южный, ЮЗ - юго-западный, З - западный, СЗ - северо-западный.
Видимость - горизонтальная дальность видимости в метрах или километрах. При видимости от 1 до 10 км при отсутствии осадков обычно наблюдается дымка, при ухудшении видимости до 1 км и менее - туман. В сухую погоду видимость может ухудшаться дымом, пылью или мглою.
Явления - указаны атмосферные явления, наблюдавшиеся в срок или в последний час перед сроком; фигурными скобками обозначены явления, наблюдавшиеся между сроками (за 1-3 часа до срока); квадратными скобками обозначены град или гололедные отложения с указанием их диаметра в мм.
Облачность - указаны через наклонную черту общая и нижняя облачность в баллах и высота нижней границы облаков в метрах; квадратными скобками обозначены формы облаков: Ci - перистые, Cs - перисто-слоистые, Cc - перисто-кучевые, Ac - высококучевые, As - высокослоистые, Sc - слоисто-кучевые, Ns - слоисто-дождевые, Cu - кучевые, Cb - кучево-дождевые. Подробнее классификацию облаков см. в Атласе облаков (PDF).
T - Температура воздуха - температура, измеренная на высоте 2 м над землей.
Td - Температура точки росы - температура, при понижении до которой содержащийся в воздухе водяной пар достигнет насыщения.
f - Относительная влажность воздуха - влажноcть воздуха, измеренная на высоте 2 м над землей.
Te - Эффективная температура - температура, которую ощущает одетый по сезону человек в тени. Характеристика душности погоды. При расчете учитывается влияние влажности воздуха и скорости ветра на теплоощущения человека.
Tes - Эффективная температура на солнце - температура, которую ощущает человек, с поправкой на солнечный нагрев. Характеристика знойности погоды. Зависит от высоты солнца над горизонтом, облачности и скорости ветра. Ночью, в пасмурную погоду, а также при ветре 12 м/с и более поправка равна нулю.
P - Атмосферное давление - приведенное к уровню моря атмосферное давление.
Po - Атмосферное давление - измеренное на уровне метеостанции атмосферное давление.
Tmin - Минимальная температура - минимум температуры воздуха на высоте 2 м над землей.
Tmax - Максимальная температура - максимум температуры воздуха на высоте 2 м над землей.
R - Количество осадков - Количество выпавших осадков за период времени, мм. При наведении курсора мыши на число - период времени, за который выпало указанное количество осадков.
R24 - Количество осадков - Количество выпавших осадков за 24 часа, мм.
S - Снежный покров - Высота снежного покрова, см. При наведении курсора мыши на число - состояние снежного покрова и степень покрытия местности в баллах.